Location: Bussy-Saint-Georges
(48.8410°N, 2.7017°E)
Time: 16:12:09
(UTC+00:00)

ARGOS - Pass Details

Date: 18 October 2021
Orbit: 820 x 835 km, 98.4° (Epoch: 28 November)

Event Time Altitude Azimuth Distance (km) Brightness Sun altitude
Rises 18:32:17 0° 176° (S) 3,353 6.2 -17.0°
Reaches altitude 10° 18:34:40 10° 181° (S) 2,426 5.5 -17.4°
Maximum altitude 18:39:57 57° 259° (W) 974 3.8 -18.2°
Drops below altitude 10° 18:45:18 10° 339° (NNW) 2,453 6.0 -19.1°
Sets 18:47:44 0° 343° (NNW) 3,393 6.7 -19.5°
